Location: Albany
(35.0000°S, 118.0000°E)
Time: 04:15:24
(UTC-04:00)

Atlas Centaur 2 - Visible Passes

Search period start: 29 May 2015 00:00
Search period end: 08 June 2015 00:00
Orbit: 460 x 1321 km, 30.4° (Epoch: 27 May)

Date Brightness Start Highest point End Pass type
(mag) Time Alt. Az. Time Alt. Az. Time Alt. Az.
29 May 4.4 07:02:08 10° NNW 07:07:41 20° NNE 07:09:07 19° NE visible
29 May 4.9 08:49:25 10° NW 08:51:51 20° NW 08:51:51 20° NW visible
30 May 4.2 06:59:00 10° NNW 07:05:26 24° NNE 07:07:20 23° NE visible
30 May 4.7 08:46:55 10° NW 08:50:03 23° NW 08:50:03 23° NW visible
31 May 4.1 06:56:06 10° NNW 07:03:10 29° NNE 07:05:30 26° NE visible
31 May 4.5 08:44:30 10° WNW 08:48:13 27° NW 08:48:13 27° NW visible
01 Jun 3.9 06:53:23 10° NW 07:00:54 35° NNE 07:03:38 29° ENE visible
01 Jun 4.4 08:42:09 10° WNW 08:46:21 31° NW 08:46:21 31° NW visible
02 Jun 3.8 06:50:48 10° NW 06:58:37 40° NNE 07:01:44 30° ENE visible
02 Jun 4.3 08:39:51 10° WNW 08:44:27 34° WNW 08:44:27 34° WNW visible
03 Jun 3.7 06:48:20 10° NW 06:56:21 46° NNE 06:59:48 32° ENE visible
03 Jun 4.2 08:37:35 10° WNW 08:42:31 37° WNW 08:42:31 37° WNW visible
04 Jun 3.6 06:45:57 10° WNW 06:54:05 51° NNE 06:57:51 32° ENE visible
04 Jun 4.1 08:35:21 10° WNW 08:40:34 39° WNW 08:40:34 39° WNW visible
05 Jun 3.5 06:43:39 10° WNW 06:51:50 55° NNE 06:55:53 32° ENE visible
05 Jun 4.0 08:33:08 10° W 08:38:36 41° WNW 08:38:36 41° WNW visible
06 Jun 3.4 06:41:24 10° WNW 06:49:35 59° N 06:53:54 31° ENE visible
06 Jun 4.0 08:30:58 10° W 08:36:37 43° WNW 08:36:37 43° WNW visible
07 Jun 3.4 06:39:12 10° WNW 06:47:22 62° N 06:51:56 30° ENE visible
07 Jun 3.9 08:28:48 10° W 08:34:40 44° WNW 08:34:40 44° WNW visible
